This is the latest recevied weather packets stored in our database for station/object DB0SWS-6. If no packets are shown the sender has not sent any weather packets the latest 10 day(s).
| Time | Temp. | Humidity | Pressure | Rain* | Wind** | Luminosity | Snow |
|---|---|---|---|---|---|---|---|
| 1777635212 | 20.56° C | 22% | 970.1 hPa | 0 mm | - | - | - |
| 1777633409 | 20° C | 26% | 970.4 hPa | 0 mm | - | - | - |
| 1777631611 | 17.78° C | 32% | 970.7 hPa | 0 mm | - | - | - |
| 1777629811 | 16.67° C | 30% | 970.7 hPa | 0 mm | - | - | - |
| 1777628010 | 17.78° C | 33% | 970.7 hPa | 0 mm | - | - | - |
| 1777626209 | 16.11° C | 33% | 970.7 hPa | 0 mm | - | - | - |
| 1777624410 | 15.56° C | 29% | 970.5 hPa | 0 mm | - | - | - |
| 1777622609 | 16.11° C | 28% | 970.5 hPa | 0 mm | - | - | - |
| 1777620810 | 15° C | 29% | 970.2 hPa | 0 mm | - | - | - |
| 1777619011 | 13.89° C | 27% | 970.3 hPa | 0 mm | - | - | - |
| 1777617211 | 13.33° C | 30% | 970 hPa | 0 mm | - | - | - |
| 1777615409 | 12.22° C | 32% | 970 hPa | 0 mm | - | - | - |
| 1777613609 | 11.11° C | 31% | 969.8 hPa | 0 mm | - | - | - |
| 1777611809 | 10.56° C | 32% | 969.7 hPa | 0 mm | - | - | - |
| 1777610009 | 10° C | 33% | 969.8 hPa | 0 mm | - | - | - |
| 1777608209 | 10.56° C | 32% | 969.4 hPa | 0 mm | - | - | - |
| 1777606410 | 10.56° C | 32% | 969.2 hPa | 0 mm | - | - | - |
| 1777604609 | 10° C | 35% | 969.6 hPa | 0 mm | - | - | - |
| 1777602810 | 10° C | 35% | 969.8 hPa | 0 mm | - | - | - |
| 1777601010 | 10° C | 35% | 969.7 hPa | 0 mm | - | - | - |
| 1777599209 | 10.56° C | 35% | 969.9 hPa | 0 mm | - | - | - |
| 1777597411 | 10.56° C | 34% | 969.8 hPa | 0 mm | - | - | - |
| 1777595611 | 11.11° C | 34% | 969.6 hPa | 0 mm | - | - | - |
| 1777593810 | 11.11° C | 34% | 969.7 hPa | 0 mm | - | - | - |
| 1777592009 | 11.67° C | 33% | 969.6 hPa | 0 mm | - | - | - |
* Rain latest hour (hover to see other rain measurements)
** Current wind speed in m/s (hover to see current wind gust speed)